Location: Newark
(41.7661°N, 124.2169°W)
Time: 13:59:20
(UTC+00:00)

N. Korean satellite - Visible Passes

Search period start: 22 November 2019 00:00
Search period end: 02 December 2019 00:00
Orbit: 456 x 506 km, 97.2° (Epoch: 21 November)

Date Brightness Start Highest point End Pass type
(mag) Time Alt. Az. Time Alt. Az. Time Alt. Az.
22 Nov 6.6 01:19:35 10° SSE 01:23:14 86° ENE 01:26:58 10° N visible
22 Nov 6.5 14:19:02 10° N 14:22:44 75° WNW 14:26:21 10° SSW visible
23 Nov 10.1 02:29:42 10° WSW 02:31:30 13° W 02:33:19 10° WNW visible
23 Nov 7.6 13:53:44 10° NNE 13:57:19 49° E 14:00:50 10° S visible
24 Nov 9.1 02:02:48 10° SSW 02:05:55 26° W 02:09:05 10° NW visible
24 Nov 9.2 13:28:50 10° NE 13:31:49 23° E 13:34:46 10° SSE visible
25 Nov 7.5 01:36:50 10° S 01:40:25 55° W 01:44:06 10° NNW visible
25 Nov 10.1 13:04:52 10° ENE 13:06:13 12° E 13:07:33 10° ESE visible
25 Nov 6.9 14:36:22 10° N 14:39:51 43° WNW 14:43:17 10° SW visible
26 Nov 6.6 14:10:50 10° NNE 14:14:30 86° E 14:18:06 10° SSW visible
27 Nov 9.9 02:20:48 10° SW 02:23:11 16° W 02:25:37 10° NW visible
27 Nov 8.1 13:45:38 10° NNE 13:49:04 38° E 13:52:25 10° SSE visible
28 Nov 8.6 01:54:17 10° SSW 01:57:38 32° W 02:01:02 10° NNW visible
28 Nov 9.5 13:20:53 10° NE 13:23:31 19° E 13:26:06 10° SE visible
29 Nov 7.0 01:28:29 10° S 01:32:10 71° W 01:35:54 10° NNW visible
29 Nov 6.6 14:28:02 10° N 14:31:37 55° WNW 14:35:06 10° SSW visible
30 Nov 10.4 02:40:07 10° W 02:40:29 10° W 02:40:51 10° W visible
30 Nov 7.0 14:02:36 10° NNE 14:06:14 66° E 14:09:45 10° S visible
01 Dec 9.5 02:12:03 10° SW 02:14:52 20° W 02:17:42 10° NW visible
01 Dec 8.6 13:37:31 10° NNE 13:40:44 30° E 13:43:53 10° SSE visible
